GW3122 Weather Reports


Display with metric or nautical units.
time (UTC)temp
F
wind
direction
speed
MPH
gust
MPH
rain 1hr
in
rain 24hr
in
rain mn
in
humidity
%
barometer
mb
20260506221617 55 305 0.0 3.0 0.08 0.79 0.01 90 1006.4
20260506220047 55 54 4.0 10.0 0.07 0.77 0.77 90 1005.8
20260506214540 56 331 5.0 10.0 0.05 0.74 0.74 90 1006.0
20260506213038 56 331 2.0 6.0 0.05 0.72 0.72 90 1006.3
20260506211546 56 360 0.0 4.0 0.08 0.70 0.70 90 1006.6
20260506210022 56 320 0.0 8.0 0.14 0.70 0.70 90 1006.6
20260506204514 56 272 1.0 6.0 0.19 0.69 0.69 89 1006.1
20260506203015 56 308 1.0 5.0 0.22 0.66 0.66 89 1006.0
20260506161525 72 219 2.0 7.0 0.00 0.00 0.00 47 1004.5
20260506160008 72 212 2.0 8.0 0.00 0.00 0.00 45 1004.4
20260506154505 73 287 3.0 8.0 0.00 0.00 0.00 44 1004.5
20260506153005 73 186 1.0 9.0 0.00 0.00 0.00 46 1004.6
20260506151505 73 185 3.0 7.0 0.00 0.00 0.00 44 1004.5
20260506150057 72 175 4.0 8.0 0.00 0.00 0.00 48 1004.7
20260506144602 72 236 3.0 12.0 0.00 0.00 0.00 50 1004.8
20260506143051 73 90 1.0 13.0 0.00 0.00 0.00 50 1004.8
20260506141540 71 205 5.0 10.0 0.00 0.00 0.00 52 1005.0
20260506140028 71 233 3.0 15.0 0.00 0.00 0.00 52 1005.0
20260506134521 71 230 6.0 15.0 0.00 0.00 0.00 50 1005.1
20260506133017 71 205 6.0 11.0 0.00 0.00 0.00 51 1005.0
20260506131510 70 191 4.0 17.0 0.00 0.00 0.00 53 1005.2
20260506130107 69 225 5.0 10.0 0.00 0.00 0.00 53 1005.4